Weather History for Bloomington, IN

Change the Weather History Date:

Wednesday, December 19, 2012

  Actual Average Record
Temperature  
Mean Temperature 39 °F 31 °F  
Max Temperature 46 °F 39 °F 58 °F (2008)
Min Temperature 32 °F 23 °F 5 °F (2000)
Degree Days  
Heating Degree Days 26 34  
Month to date heating degree days 381 598  
Since 1 July heating degree days 1597 1654  
Cooling Degree Days 0 0  
Month to date cooling degree days 1 0  
Year to date cooling degree days 1310 927  
Moisture  
Dew Point 33 °F    
Average Humidity 77    
Maximum Humidity 89    
Minimum Humidity 65    
Precipitation  
Precipitation 0.06 in 0.10 in 0.89 in (2008)
Month to date precipitation 1.09 1.91  
Year to date precipitation 29.92 45.92  
Sea Level Pressure  
Sea Level Pressure 29.96 in    
Wind  
Wind Speed 8 mph (ESE)    
Max Wind Speed 18 mph    
Max Gust Speed 25 mph    
Visibility 8 miles    
Events Rain    
T = Trace of Precipitation, MM = Missing Value Source: NWS Daily Summary

Daily Weather History Graph

Daily Weather History Graph

Search for Another Location

Airport:

Trip Planner

Search our weather history database for the weather conditions in past years. The results will help you decide how hot, cold, wet, or windy it might be!

Date:

Astronomy

Dec. 19, 2012 Rise Set
Actual Time 8:01 AM EST 5:26 PM EST
Civil Twilight 7:31 AM EST 5:56 PM EST
Nautical Twilight 6:57 AM EST 6:30 PM EST
Astronomical Twilight 6:25 AM EST 7:02 PM EST
Moon 12:13 PM EST (12/19) No Moon Set
Length of Visible Light 10h 25m
Length of Day
9h 24m
Waxing Crescent, 45% of the Moon is Illuminated
Dec 19
Waxing Crescent
Dec 20
First Quarter
Dec 28
Full
Jan 4
Last Quarter
Jan 11
New

Hourly Weather History & Observations

Time (EST) Temp. Windchill Dew Point Humidity Pressure Visibility Wind Dir Wind Speed Gust Speed Precip Events Conditions
12:22 AM 44.6 °F 38.4 °F 37.4 °F 76% 29.83 in 10.0 mi WNW 12.7 mph 25.3 mph N/A   Mostly Cloudy
12:50 AM 41.0 °F 33.9 °F 33.8 °F 76% 29.85 in 10.0 mi WNW 12.7 mph 23.0 mph N/A   Scattered Clouds
12:53 AM 41.0 °F 32.8 °F 32.0 °F 70% 29.86 in 10.0 mi WNW 16.1 mph 23.0 mph N/A   Partly Cloudy
1:53 AM 37.0 °F 30.4 °F 30.0 °F 76% 29.90 in 8.0 mi NW 9.2 mph - N/A   Clear
2:53 AM 35.1 °F 31.0 °F 30.0 °F 82% 29.92 in 7.0 mi WNW 4.6 mph - N/A   Clear
3:53 AM 34.0 °F 28.0 °F 30.0 °F 85% 29.94 in 7.0 mi WNW 6.9 mph - N/A   Clear
4:53 AM 33.1 °F - 28.9 °F 85% 29.96 in 6.0 mi Calm Calm - N/A   Clear
5:10 AM 33.8 °F - 28.4 °F 81% 29.95 in 6.0 mi Calm Calm - N/A   Mostly Cloudy
5:21 AM 33.8 °F - 30.2 °F 87% 29.95 in 6.0 mi Calm Calm - N/A   Overcast
5:53 AM 35.1 °F 31.0 °F 30.9 °F 85% 29.97 in 6.0 mi Variable 4.6 mph - N/A   Overcast
6:53 AM 36.0 °F - 30.9 °F 82% 29.99 in 6.0 mi Calm Calm - N/A   Haze
7:53 AM 36.0 °F - 32.0 °F 86% 30.01 in 5.0 mi Calm Calm - N/A   Overcast
8:53 AM 37.0 °F 34.5 °F 32.0 °F 82% 30.02 in 5.0 mi ENE 3.5 mph - N/A   Haze
9:53 AM 37.0 °F 31.0 °F 32.0 °F 82% 30.03 in 5.0 mi ENE 8.1 mph - N/A   Haze
10:53 AM 39.0 °F 34.0 °F 33.1 °F 79% 30.05 in 6.0 mi East 6.9 mph - N/A   Haze
11:53 AM 41.0 °F 35.8 °F 34.0 °F 76% 30.05 in 6.0 mi ESE 8.1 mph - N/A   Haze
12:53 PM 41.0 °F 35.8 °F 34.0 °F 76% 30.04 in 8.0 mi ESE 8.1 mph - N/A   Clear
1:53 PM 43.0 °F 38.8 °F 34.0 °F 71% 30.01 in 9.0 mi East 6.9 mph - N/A   Clear
2:53 PM 45.0 °F 40.6 °F 35.1 °F 68% 30.02 in 10.0 mi SSE 8.1 mph - N/A   Clear
3:53 PM 45.0 °F 40.6 °F 35.1 °F 68% 30.00 in 9.0 mi SE 8.1 mph - N/A   Clear
4:53 PM 44.1 °F 39.5 °F 34.0 °F 68% 29.99 in 9.0 mi SE 8.1 mph - N/A   Partly Cloudy
5:53 PM 44.1 °F 38.1 °F 34.0 °F 68% 29.98 in 9.0 mi ESE 11.5 mph - N/A   Mostly Cloudy
6:53 PM 44.1 °F 39.0 °F 35.1 °F 71% 29.99 in 9.0 mi ESE 9.2 mph - N/A   Overcast
7:53 PM 44.1 °F 39.0 °F 35.1 °F 71% 29.97 in 10.0 mi ESE 9.2 mph - N/A   Overcast
8:53 PM 44.1 °F 39.0 °F 36.0 °F 73% 29.95 in 10.0 mi ESE 9.2 mph - 0.00 in   Overcast
9:53 PM 43.0 °F 36.8 °F 37.0 °F 80% 29.91 in 9.0 mi ESE 11.5 mph - 0.06 in Rain Light Rain
10:53 PM 45.0 °F 38.9 °F 37.0 °F 74% 29.87 in 10.0 mi SE 12.7 mph - N/A   Mostly Cloudy
11:53 PM 45.0 °F 39.3 °F 37.0 °F 74% 29.84 in 10.0 mi SE 11.5 mph - N/A   Scattered Clouds